Location: Navalcarnero
(40.2891°N, 4.0120°W)
Time: 23:04:56
(UTC+00:00)

Daily predictions for brighter satellites

Satellite Brightness Start Highest point End
(mag) Time Altitude Azimuth Time Altitude Azimuth Time Altitude Azimuth
Exosat Rocket 4.4 20:13:57 10° NNW 20:19:26 70° WSW 20:26:51 10° S
Cosmos 1743 Rocket 4.0 20:15:50 10° N 20:19:58 43° ENE 20:24:03 10° SSE
Resurs 01 Rocket 3.2 20:17:16 10° SSW 20:21:15 34° W 20:25:16 10° NNW
Cosmos 1470 2.4 20:17:46 10° N 20:21:18 77° E 20:24:48 10° S
CZ-2C R/B 3.9 20:18:48 10° SSW 20:21:58 37° W 20:25:08 10° NNW
NOSS 2-2 (E) 4.2 20:18:10 10° NNW 20:22:21 57° NE 20:28:13 10° SE
ERS-1 Rocket 3.8 20:18:08 10° SE 20:22:39 36° ENE 20:27:12 10° N
Cosmos 1605 Rocket 4.2 20:18:32 10° N 20:24:32 53° E 20:30:27 10° SSE
Cosmos 2219 Rocket 3.4 20:20:29 10° NW 20:25:41 41° WSW 20:30:50 10° S
USA 186 1.9 20:24:45 10° S 20:27:29 58° W 20:30:15 10° NNW
CSL-04 Rocket 3.9 20:22:20 10° S 20:27:35 72° WSW 20:32:52 10° NNW
CSL-04 Debris 4.5 20:23:51 10° S 20:29:15 70° WSW 20:34:41 10° NNW
Cosmos 1066 Rocket 4.3 20:27:35 10° S 20:33:24 85° E 20:39:18 10° N
Cosmos 2237 Rocket 2.9 20:38:33 10° N 20:43:56 42° ENE 20:48:43 13° SE
USA 305 2.5 20:43:56 10° SW 20:47:52 65° SE 20:51:33 10° NE
USA 215 3.6 20:42:55 10° SSE 20:49:19 60° SW 20:55:47 10° NW
Cosmos 1666 Rocket 4.2 20:47:24 10° N 20:51:37 40° ENE 20:54:55 15° SE
Meteor 2-10 Rocket 4.1 20:46:16 10° N 20:51:44 46° ENE 20:56:11 14° SE
Delta 2 Rocket 4.4 20:48:19 10° WSW 20:51:47 29° SSW 20:54:23 16° SE
Okean-O 2.7 20:50:15 12° SSE 20:54:15 65° ENE 20:58:37 10° N
MOS 1 4.4 20:50:37 10° SSE 20:56:18 81° WSW 21:02:00 10° NNW
Cosmos 1110 Rocket 4.1 20:53:12 10° NNW 20:58:27 81° WSW 21:03:14 12° SSE
NOSS 3-4 (A) 3.3 20:53:40 10° SW 20:58:58 76° NW 21:04:42 10° NNE
NOSS 3-4 (C) 3.3 20:53:47 10° SW 20:59:04 77° NW 21:04:48 10° NNE
Lacrosse 4 Rocket 3.3 20:58:14 10° N 21:01:18 19° NE 21:04:06 11° E
Cosmos 1633 Rocket 3.6 20:57:39 10° N 21:01:44 41° ENE 21:04:31 18° SE
Cosmos 1818 3.5 20:56:44 10° SSW 21:02:05 64° ESE 21:07:29 10° NE
Cosmos 1331 Rocket 4.0 20:57:21 10° NNW 21:02:31 81° WSW 21:07:03 13° SSE
COSMOS 2428 3.3 20:57:50 10° NNW 21:03:25 55° WSW 21:08:56 10° S
SAR-Lupe-2 4.4 21:04:36 20° SE 21:06:33 35° ENE 21:09:52 10° N
Cosmos 1328 Rocket 3.5 21:05:56 10° S 21:10:17 73° E 21:14:40 10° NNE
Cosmos 2297 Rocket 2.7 21:06:06 10° SSW 21:11:42 65° WNW 21:17:21 10° NNE
Cosmos 614 Rocket 3.9 21:06:36 10° SSW 21:11:47 84° ESE 21:16:57 10° NNE
Cosmos 1455 1.8 21:10:04 10° N 21:12:42 43° E 21:13:31 31° SE
Ariane Rocket 3.8 21:09:58 18° SE 21:13:07 36° ENE 21:17:44 10° N
ARIANE 6 FM1 Upper Stage 2.7 21:09:34 10° NNW 21:13:43 75° NE 21:16:17 23° SE
Meteor 2-19 Rocket 4.4 21:08:36 10° S 21:14:39 87° W 21:20:45 10° N
SPOT 3 Rocket 4.1 21:14:36 20° SE 21:17:48 44° ENE 21:22:40 10° N
Cosmos 1470 Rocket 4.0 21:18:08 10° N 21:22:18 44° ENE 21:24:22 25° SE
NOSS 0 Rocket 4.4 21:16:36 10° NNW 21:22:40 57° WSW 21:27:43 15° S
Cosmos 1758 3.6 21:21:22 10° N 21:24:57 44° E 21:26:20 30° SE
Meteor 1-13 Rocket 4.4 21:21:24 15° S 21:26:21 62° E 21:32:10 10° NNE
Cosmos 1302 Rocket 4.0 21:23:37 10° NNW 21:28:54 76° ENE 21:32:02 25° SSE
ATLAS CENTAUR R/B 2.1 21:25:58 10° NNW 21:29:32 37° NE 21:31:05 25° E
Helios 1A 4.3 21:28:50 10° N 21:32:30 37° WNW 21:36:08 10° SW
Cosmos 2173 Rocket 4.0 21:27:38 10° N 21:33:47 66° E 21:37:34 24° SSE
PSLV R/B 4.0 21:33:05 33° ESE 21:33:52 40° ENE 21:36:59 10° N
Cosmos 1452 Rocket 4.3 21:31:11 10° NNW 21:36:10 45° WSW 21:40:08 16° S
Terra 2.5 21:32:51 14° S 21:36:38 48° W 21:41:11 10° NNW
Cosmos 1727 Rocket 4.2 21:30:43 10° SSW 21:36:51 72° W 21:43:02 10° N
USA 276 1.9 21:34:57 10° NW 21:36:45 48° N 21:36:45 48° N
Cosmos 1515 Rocket 3.6 21:34:51 27° SSE 21:37:05 60° E 21:41:27 10° NNE
IRS-1C Rocket 4.0 21:35:12 24° SSE 21:38:26 84° ENE 21:43:43 10° NNW
SL-16 R/B 3.2 21:33:32 10° N 21:38:40 34° ENE 21:41:38 21° ESE
Cosmos 2227 Rocket 2.2 21:34:36 10° SSW 21:40:15 83° WNW 21:45:55 10° NNE
RESURS DK-1 2.1 21:38:46 19° SSW 21:41:32 74° ESE 21:45:32 10° NNE
Cosmos 2263 Rocket 2.3 21:41:20 22° S 21:44:51 53° ESE 21:50:22 10° NNE
COSMOS 2455 2.8 21:41:07 10° NNW 21:47:11 85° WSW 21:50:27 29° SSE
Okean O Rocket 3.6 21:44:36 10° SSW 21:47:58 22° W 21:51:21 10° NW
Cosmos 2100 Rocket 3.9 21:43:22 10° N 21:49:33 90° W 21:53:20 25° S
Spot 2 Rocket 4.0 21:47:54 21° S 21:51:11 56° W 21:56:11 10° NNW
Cosmos 1980 4.4 21:48:43 10° NW 21:54:07 48° WSW 21:57:28 22° S
Cosmos 1437 Rocket 2.3 21:55:31 49° S 21:56:24 87° E 21:59:57 10° N
Cosmos 1725 Rocket 4.1 21:52:38 10° N 21:58:55 65° E 22:01:55 32° SSE
Cosmos 921 Rocket 4.4 21:55:26 10° SW 21:59:21 37° WNW 22:03:23 10° N
Cosmos 2219 3.2 22:02:23 26° S 22:05:40 69° ESE 22:11:24 10° NNE
Geosat 3.9 22:06:35 10° NNE 22:11:38 85° ESE 22:14:36 25° SSW
USA 290 3.1 22:14:12 39° NE 22:14:12 39° NE 22:16:28 10° NNE
COBE Rocket 3.9 22:08:47 10° NNE 22:13:48 65° E 22:15:11 44° SSE
Cosmos 2082 3.7 22:12:58 36° S 22:15:09 61° ESE 22:20:48 10° NNE
Cosmos 2123 Rocket 4.2 22:11:21 20° SSW 22:15:47 71° W 22:22:03 10° N
ARIANE 5 R/B 4.3 22:20:49 20° E 22:21:38 21° ENE 22:24:55 10° NNE
SL-4 R/B 1.8 22:21:16 47° SW 22:22:23 78° SE 22:26:27 10° NE
Cosmos 2237 Rocket 3.7 22:23:03 10° NW 22:27:43 27° WSW 22:30:32 18° SW
Cosmos 1140 Rocket 3.4 22:26:48 50° SSE 22:27:54 64° ESE 22:32:58 10° NNE
Cosmos 1953 2.3 22:27:13 10° N 22:30:44 60° ENE 22:30:44 60° ENE
Cosmos 1802 Rocket 4.4 22:29:21 10° NNW 22:35:38 58° W 22:38:44 30° SSW
Cosmos 2061 Rocket 3.9 22:31:12 10° N 22:37:30 83° E 22:39:36 45° SSE
Lacrosse 4 Rocket 2.1 22:35:26 10° NW 22:39:25 42° WSW 22:39:42 42° WSW
Cosmos 1023 Rocket 4.3 22:40:15 49° SSW 22:41:41 88° WNW 22:46:48 10° NNE
Cosmos 407 Rocket 3.5 22:50:55 55° ESE 22:51:06 56° ESE 22:56:06 10° NNE
CZ-4C R/B 4.0 22:50:30 10° NNE 22:52:42 40° NNE 22:52:42 40° NNE
Cosmos 2228 Rocket 3.5 22:54:32 50° E 22:54:32 50° E 22:58:34 10° NNE
Cosmos 1844 Rocket 3.3 22:54:47 38° ESE 22:54:47 38° ESE 22:59:55 10° NE
IRIDIUM 104 4.2 22:55:45 63° SSE 22:56:34 81° E 23:01:48 10° N
Cosmos 1447 Rocket 4.4 22:55:55 46° SSW 22:57:53 85° W 23:04:07 10° N
Cosmos 2251 Rocket 4.1 22:59:05 41° E 22:59:05 41° E 23:03:55 10° NNE
Cosmos 1844 4.4 22:59:50 36° E 22:59:50 36° E 23:04:35 10° NE
GP-B 3.9 22:56:16 10° NNW 23:00:23 41° W 23:01:12 37° WSW
Cosmos 1707 Rocket 3.5 23:05:00 72° NE 23:05:00 72° NE 23:09:01 10° N
ATLAS CENTAUR R/B 3.4 23:02:47 10° WNW 23:04:28 16° W 23:04:28 16° W
USA 234 4.5 23:00:06 10° ENE 23:03:50 23° ESE 23:03:50 23° ESE
Cosmos 2084 Rocket 4.4 23:01:49 10° NW 23:05:01 36° W 23:05:01 36° W
IRIDIUM 114 4.2 23:04:53 64° SSW 23:05:43 83° W 23:10:58 10° N
Landsat 5 4.0 23:06:28 10° NNE 23:09:56 49° ENE 23:09:56 49° ENE
Cosmos 540 Rocket 4.2 23:08:58 10° N 23:13:46 39° ENE 23:14:32 37° E
ALOS 2 3.5 23:14:26 37° ENE 23:14:26 37° ENE 23:18:30 10° N
IRIDIUM 103 4.4 23:14:01 57° SW 23:14:53 68° W 23:20:05 10° N
Cosmos 1733 Rocket 3.1 23:17:54 10° N 23:21:58 73° NW 23:21:58 73° NW
SL-16 R/B 3.2 23:17:39 10° NW 23:22:41 34° WSW 23:23:29 32° WSW
ATLAS 2AS CENTAUR R/B 3.4 23:25:05 36° ESE 23:25:14 36° ESE 23:31:30 10° NE
BREEZE-M DEB (TANK) 4.5 23:12:36 10° SW 23:28:11 33° E 23:30:18 10° ENE
Cosmos 2263 Rocket 4.2 23:24:35 10° WSW 23:29:04 24° NW 23:33:36 10° N
Cosmos 1464 Rocket 4.0 23:23:36 10° N 23:29:51 67° E 23:31:00 55° SE
CZ-2C R/B 4.2 23:29:13 10° N 23:33:38 51° WNW 23:34:03 50° W
Cosmos 2034 Rocket 4.4 23:30:41 10° N 23:36:43 50° ENE 23:37:59 44° ESE
SeaSat 1 3.9 23:37:33 25° E 23:39:00 30° NE 23:43:14 10° N
ASTEX 1 4.0 23:36:22 10° N 23:41:05 45° WNW 23:41:43 43° WSW
Cosmos 1908 Rocket 4.2 23:38:15 10° N 23:42:02 47° ENE 23:42:02 47° ENE
Cosmos 1943 3.1 23:38:46 10° NNW 23:44:26 68° WSW 23:44:50 66° SW
Aureole 3 Rocket 3.9 23:41:18 10° NNW 23:43:25 38° NNW 23:43:25 38° NNW
MetOp-A 4.4 23:48:13 47° W 23:48:13 47° W 23:52:32 10° NNW
Cosmos 1271 Rocket 4.0 23:50:19 37° N 23:50:19 37° N 23:52:36 10° N
SL-12 R/B(2) 4.4 23:48:04 45° SE 23:49:33 50° ESE 23:58:11 10° NE
Cosmos 1763 Rocket 3.4 23:47:16 10° NNW 23:52:18 73° W 23:52:18 73° W
Okean 1-7 3.9 23:56:02 40° WNW 23:56:02 40° WNW 23:59:33 10° N
